| time (UTC) | temp F | wind direction | speed MPH | gust MPH | rain 1hr in | rain 24hr in | rain mn in | humidity % | barometer mb |
| 20260504202308 | 70 | 188 | 3.0 | 6.0 | 0.00 | 0.00 | 0.00 | 46 | 1014.9 |
| 20260504201804 | 71 | 257 | 2.0 | 6.0 | 0.00 | 0.00 | 0.00 | 46 | 1014.8 |
| 20260504201302 | 71 | 295 | 2.0 | 4.0 | 0.00 | 0.00 | 0.00 | 45 | 1015.1 |
| 20260504200759 | 72 | 331 | 4.0 | 6.0 | 0.00 | 0.00 | 0.00 | 45 | 1015.1 |
| 20260504200255 | 70 | 292 | 1.0 | 4.0 | 0.00 | 0.00 | 0.00 | 48 | 1015.1 |
| 20260504195752 | 70 | 232 | 3.0 | 4.0 | 0.00 | 0.00 | 0.00 | 52 | 1015.2 |
| 20260504195247 | 70 | 251 | 3.0 | 4.0 | 0.00 | 0.00 | 0.00 | 46 | 1015.3 |
| 20260504194745 | 69 | 47 | 4.0 | 7.0 | 0.00 | 0.00 | 0.00 | 49 | 1015.3 |
| 20260504194241 | 69 | 285 | 1.0 | 7.0 | 0.00 | 0.00 | 0.00 | 48 | 1015.6 |
| 20260504193737 | 70 | 342 | 3.0 | 6.0 | 0.00 | 0.00 | 0.00 | 49 | 1015.6 |
| 20260504193235 | 69 | 348 | 3.0 | 4.0 | 0.00 | 0.00 | 0.00 | 49 | 1015.7 |
| 20260504192733 | 68 | 337 | 2.0 | 6.0 | 0.00 | 0.00 | 0.00 | 49 | 1015.7 |
| 20260504192231 | 70 | 306 | 2.0 | 4.0 | 0.00 | 0.00 | 0.00 | 49 | 1016.0 |
| 20260504191729 | 69 | 271 | 1.0 | 4.0 | 0.00 | 0.00 | 0.00 | 50 | 1015.8 |
| 20260504191226 | 68 | 185 | 5.0 | 6.0 | 0.00 | 0.00 | 0.00 | 50 | 1016.1 |
| 20260504190721 | 69 | 229 | 2.0 | 4.0 | 0.00 | 0.00 | 0.00 | 53 | 1016.3 |
| 20260504190218 | 69 | 240 | 3.0 | 6.0 | 0.00 | 0.00 | 0.00 | 53 | 1016.1 |
| 20260504185714 | 68 | 307 | 1.0 | 3.0 | 0.00 | 0.00 | 0.00 | 52 | 1016.3 |
| 20260504185211 | 67 | 285 | 1.0 | 2.0 | 0.00 | 0.00 | 0.00 | 49 | 1016.0 |
| 20260504184707 | 68 | 319 | 3.0 | 4.0 | 0.00 | 0.00 | 0.00 | 49 | 1016.3 |
| 20260504184203 | 68 | 271 | 3.0 | 4.0 | 0.00 | 0.00 | 0.00 | 51 | 1016.5 |
| 20260504183659 | 69 | 215 | 6.0 | 8.0 | 0.00 | 0.00 | 0.00 | 51 | 1016.3 |
| 20260504183156 | 67 | 292 | 0.0 | 2.0 | 0.00 | 0.00 | 0.00 | 53 | 1016.6 |
| 20260504182654 | 66 | 308 | 1.0 | 4.0 | 0.00 | 0.00 | 0.00 | 51 | 1016.5 |
| 20260504182151 | 67 | 269 | 2.0 | 4.0 | 0.00 | 0.00 | 0.00 | 52 | 1016.5 |
| 20260504181649 | 65 | 293 | 1.0 | 6.0 | 0.00 | 0.00 | 0.00 | 54 | 1016.6 |
| 20260504181146 | 66 | 279 | 0.0 | 3.0 | 0.00 | 0.00 | 0.00 | 50 | 1016.7 |
| 20260504180645 | 66 | 326 | 3.0 | 4.0 | 0.00 | 0.00 | 0.00 | 51 | 1016.5 |
| 20260504180143 | 66 | 332 | 2.0 | 6.0 | 0.00 | 0.00 | 0.00 | 52 | 1016.5 |
| 20260504175640 | 67 | 203 | 4.0 | 7.0 | 0.00 | 0.00 | 0.00 | 52 | 1016.6 |
| 20260504175137 | 66 | 241 | 4.0 | 6.0 | 0.00 | 0.00 | 0.00 | 51 | 1016.4 |
| 20260504174636 | 66 | 275 | 2.0 | 3.0 | 0.00 | 0.00 | 0.00 | 52 | 1016.6 |
| 20260504174131 | 67 | 320 | 3.0 | 4.0 | 0.00 | 0.00 | 0.00 | 51 | 1016.7 |
| 20260504173629 | 67 | 260 | 2.0 | 4.0 | 0.00 | 0.00 | 0.00 | 52 | 1016.7 |
| 20260504173126 | 66 | 222 | 3.0 | 6.0 | 0.00 | 0.00 | 0.00 | 53 | 1016.7 |
| 20260504172622 | 66 | 274 | 1.0 | 2.0 | 0.00 | 0.00 | 0.00 | 52 | 1016.7 |
| 20260504172119 | 65 | 234 | 3.0 | 3.0 | 0.00 | 0.00 | 0.00 | 54 | 1016.6 |
| 20260504171615 | 65 | 294 | 0.0 | 3.0 | 0.00 | 0.00 | 0.00 | 51 | 1016.8 |
| 20260504171113 | 64 | 302 | 2.0 | 3.0 | 0.00 | 0.00 | 0.00 | 53 | 1016.7 |
| 20260504170609 | 64 | 352 | 3.0 | 6.0 | 0.00 | 0.00 | 0.00 | 51 | 1016.6 |
| 20260504170107 | 65 | 282 | 3.0 | 4.0 | 0.00 | 0.00 | 0.00 | 51 | 1017.0 |
| 20260504150952 | 54 | 282 | 1.0 | 2.0 | 0.00 | 0.00 | 0.00 | 78 | 1018.0 |
| 20260504150449 | 55 | 310 | 2.0 | 4.0 | 0.00 | 0.00 | 0.00 | 78 | 1018.5 |
| 20260504140916 | 57 | 282 | 1.0 | 3.0 | 0.00 | 0.00 | 0.00 | 60 | 1018.6 |
| 20260504140412 | 57 | 298 | 1.0 | 3.0 | 0.00 | 0.00 | 0.00 | 57 | 1018.4 |
| 20260504130337 | 47 | 275 | 1.0 | 1.0 | 0.00 | 0.00 | 0.00 | 72 | 1017.8 |
| 20260504120300 | 38 | 307 | 1.0 | 1.0 | 0.00 | 0.00 | 0.00 | 90 | 1017.5 |
| 20260504110224 | 34 | 306 | 0.0 | 2.0 | 0.00 | 0.00 | 0.00 | 94 | 1017.4 |
| 20260504100148 | 34 | 3 | 2.0 | 2.0 | 0.00 | 0.00 | 0.00 | 94 | 1017.4 |
| 20260504090110 | 36 | 294 | 0.0 | 0.0 | 0.00 | 0.00 | 0.00 | 89 | 1017.2 |
| 20260504081541 | 37 | 293 | 0.0 | 1.0 | 0.00 | 0.00 | 0.00 | 87 | 1017.2 |
| 20260504081036 | 37 | 310 | 1.0 | 2.0 | 0.00 | 0.00 | 0.00 | 86 | 1017.0 |
| 20260504080533 | 37 | 302 | 0.0 | 1.0 | 0.00 | 0.00 | 0.00 | 85 | 1016.9 |
| 20260504050346 | 37 | 312 | 1.0 | 1.0 | 0.00 | 0.00 | 0.00 | 83 | 1017.5 |
| 20260504045843 | 37 | 303 | 0.0 | 1.0 | 0.00 | 0.00 | 0.00 | 84 | 1017.5 |
| 20260504045338 | 37 | 301 | 0.0 | 1.0 | 0.00 | 0.00 | 0.00 | 83 | 1017.7 |
| 20260504044835 | 37 | 295 | 0.0 | 0.0 | 0.00 | 0.00 | 0.00 | 82 | 1017.7 |
| 20260504044332 | 37 | 295 | 0.0 | 0.0 | 0.00 | 0.00 | 0.00 | 83 | 1017.7 |
| 20260504043830 | 38 | 294 | 0.0 | 0.0 | 0.00 | 0.00 | 0.00 | 82 | 1017.7 |
| 20260504043326 | 38 | 300 | 0.0 | 0.0 | 0.00 | 0.00 | 0.00 | 80 | 1017.6 |
| 20260504042824 | 38 | 302 | 0.0 | 0.0 | 0.00 | 0.00 | 0.00 | 79 | 1017.5 |
| 20260504042320 | 38 | 300 | 0.0 | 0.0 | 0.00 | 0.00 | 0.00 | 78 | 1017.5 |
| 20260504041816 | 38 | 301 | 0.0 | 0.0 | 0.00 | 0.00 | 0.00 | 78 | 1017.8 |
| 20260504041312 | 38 | 312 | 1.0 | 1.0 | 0.00 | 0.00 | 0.00 | 78 | 1017.8 |
| 20260504040809 | 38 | 286 | 0.0 | 1.0 | 0.00 | 0.00 | 0.00 | 77 | 1017.9 |
| 20260504040307 | 38 | 286 | 1.0 | 1.0 | 0.00 | 0.00 | 0.00 | 76 | 1017.6 |
| 20260504035802 | 39 | 286 | 0.0 | 0.0 | 0.00 | 0.00 | 0.00 | 77 | 1017.8 |
| 20260504035300 | 39 | 286 | 0.0 | 0.0 | 0.00 | 0.00 | 0.00 | 77 | 1017.6 |
| 20260504034757 | 39 | 286 | 0.0 | 0.0 | 0.00 | 0.00 | 0.00 | 78 | 1017.5 |
| 20260504034254 | 39 | 285 | 0.0 | 1.0 | 0.00 | 0.00 | 0.00 | 77 | 1017.6 |
| 20260504033751 | 40 | 292 | 0.0 | 0.0 | 0.00 | 0.00 | 0.00 | 76 | 1017.4 |
| 20260504033249 | 40 | 311 | 1.0 | 1.0 | 0.00 | 0.00 | 0.00 | 73 | 1017.6 |
| 20260504032745 | 40 | 303 | 0.0 | 1.0 | 0.00 | 0.00 | 0.00 | 73 | 1017.6 |
| 20260504032243 | 39 | 310 | 1.0 | 1.0 | 0.00 | 0.00 | 0.00 | 73 | 1017.5 |
| 20260504031739 | 39 | 301 | 0.0 | 0.0 | 0.00 | 0.00 | 0.00 | 74 | 1017.4 |
| 20260504031237 | 40 | 303 | 1.0 | 1.0 | 0.00 | 0.00 | 0.00 | 74 | 1017.6 |
| 20260504030732 | 40 | 310 | 1.0 | 1.0 | 0.00 | 0.00 | 0.00 | 72 | 1017.4 |
| 20260504030230 | 40 | 307 | 1.0 | 1.0 | 0.00 | 0.00 | 0.00 | 72 | 1017.3 |
| 20260504025726 | 40 | 303 | 1.0 | 1.0 | 0.00 | 0.00 | 0.00 | 72 | 1017.5 |
| 20260504025223 | 40 | 298 | 0.0 | 0.0 | 0.00 | 0.00 | 0.00 | 72 | 1017.5 |
| 20260504024720 | 40 | 300 | 0.0 | 0.0 | 0.00 | 0.00 | 0.00 | 73 | 1017.5 |
| 20260504024217 | 40 | 273 | 0.0 | 0.0 | 0.00 | 0.00 | 0.00 | 71 | 1017.5 |
| 20260504023714 | 41 | 272 | 0.0 | 1.0 | 0.00 | 0.00 | 0.00 | 70 | 1017.5 |
| 20260504023209 | 41 | 273 | 1.0 | 1.0 | 0.00 | 0.00 | 0.00 | 69 | 1017.6 |
| 20260504022706 | 42 | 272 | 1.0 | 1.0 | 0.00 | 0.00 | 0.00 | 69 | 1017.6 |
| 20260504022202 | 43 | 286 | 0.0 | 1.0 | 0.00 | 0.00 | 0.00 | 66 | 1017.5 |
| 20260504021700 | 44 | 315 | 1.0 | 1.0 | 0.00 | 0.00 | 0.00 | 60 | 1017.7 |
| 20260504021156 | 44 | 314 | 2.0 | 2.0 | 0.00 | 0.00 | 0.00 | 61 | 1017.6 |
| 20260504020653 | 44 | 321 | 1.0 | 2.0 | 0.00 | 0.00 | 0.00 | 62 | 1017.4 |
| 20260504020149 | 44 | 314 | 1.0 | 2.0 | 0.00 | 0.00 | 0.00 | 63 | 1017.4 |
| 20260504015646 | 44 | 315 | 1.0 | 1.0 | 0.00 | 0.00 | 0.00 | 62 | 1017.4 |
| 20260504015142 | 45 | 317 | 1.0 | 1.0 | 0.00 | 0.00 | 0.00 | 59 | 1017.2 |
| 20260504014638 | 45 | 323 | 1.0 | 3.0 | 0.00 | 0.00 | 0.00 | 58 | 1017.4 |
| 20260504014136 | 45 | 313 | 1.0 | 2.0 | 0.00 | 0.00 | 0.00 | 61 | 1017.0 |
| 20260504013633 | 46 | 313 | 1.0 | 1.0 | 0.00 | 0.00 | 0.00 | 58 | 1016.9 |
| 20260504013130 | 46 | 312 | 0.0 | 1.0 | 0.00 | 0.00 | 0.00 | 55 | 1016.8 |
| 20260504012627 | 47 | 313 | 1.0 | 1.0 | 0.00 | 0.00 | 0.00 | 52 | 1017.0 |
| 20260504012125 | 47 | 316 | 1.0 | 2.0 | 0.00 | 0.00 | 0.00 | 52 | 1017.2 |
| 20260504011622 | 48 | 316 | 1.0 | 1.0 | 0.00 | 0.00 | 0.00 | 50 | 1016.9 |
| 20260504011118 | 48 | 309 | 1.0 | 2.0 | 0.00 | 0.00 | 0.00 | 48 | 1016.8 |
| 20260504010614 | 49 | 316 | 1.0 | 2.0 | 0.00 | 0.00 | 0.00 | 47 | 1016.9 |
| 20260504010110 | 49 | 358 | 3.0 | 3.0 | 0.00 | 0.00 | 0.00 | 45 | 1016.7 |
| 20260504005607 | 50 | 320 | 2.0 | 2.0 | 0.00 | 0.00 | 0.00 | 45 | 1016.5 |
| 20260504005104 | 50 | 334 | 2.0 | 2.0 | 0.00 | 0.00 | 0.00 | 42 | 1016.5 |
| 20260504004602 | 50 | 311 | 1.0 | 2.0 | 0.00 | 0.00 | 0.00 | 43 | 1016.7 |
| 20260504004059 | 50 | 317 | 1.0 | 2.0 | 0.00 | 0.00 | 0.00 | 42 | 1016.6 |
| 20260504003555 | 50 | 307 | 1.0 | 1.0 | 0.00 | 0.00 | 0.00 | 41 | 1016.6 |
| 20260504003052 | 51 | 305 | 1.0 | 1.0 | 0.00 | 0.00 | 0.00 | 40 | 1016.6 |
| 20260504002549 | 51 | 310 | 1.0 | 2.0 | 0.00 | 0.00 | 0.00 | 40 | 1016.5 |
| 20260504002046 | 52 | 309 | 1.0 | 1.0 | 0.00 | 0.00 | 0.00 | 39 | 1016.6 |
| 20260504001544 | 52 | 313 | 1.0 | 1.0 | 0.00 | 0.00 | 0.00 | 40 | 1016.6 |
| 20260504001039 | 52 | 294 | 0.0 | 2.0 | 0.00 | 0.00 | 0.00 | 37 | 1016.7 |
| 20260504000537 | 53 | 296 | 0.0 | 3.0 | 0.00 | 0.00 | 0.00 | 38 | 1016.5 |
| 20260504000034 | 53 | 290 | 2.0 | 2.0 | 0.00 | 0.00 | 0.00 | 36 | 1016.5 |
| 20260503235533 | 53 | 262 | 0.0 | 1.0 | 0.00 | 0.00 | 0.00 | 35 | 1016.5 |
| 20260503235029 | 53 | 275 | 1.0 | 1.0 | 0.00 | 0.00 | 0.00 | 35 | 1016.4 |
| 20260503234527 | 54 | 294 | 0.0 | 2.0 | 0.00 | 0.00 | 0.00 | 36 | 1016.5 |
| 20260503234025 | 54 | 299 | 0.0 | 2.0 | 0.00 | 0.00 | 0.00 | 34 | 1016.6 |
| 20260503233521 | 54 | 319 | 2.0 | 3.0 | 0.00 | 0.00 | 0.00 | 33 | 1016.4 |
| 20260503233017 | 55 | 326 | 2.0 | 2.0 | 0.00 | 0.00 | 0.00 | 35 | 1016.4 |
| 20260503232514 | 55 | 216 | 1.0 | 3.0 | 0.00 | 0.00 | 0.00 | 32 | 1016.4 |
| 20260503232012 | 55 | 303 | 0.0 | 4.0 | 0.00 | 0.00 | 0.00 | 34 | 1016.4 |
| 20260503231510 | 55 | 292 | 1.0 | 2.0 | 0.00 | 0.00 | 0.00 | 32 | 1016.4 |
| 20260503231006 | 55 | 279 | 2.0 | 9.0 | 0.00 | 0.00 | 0.00 | 32 | 1016.3 |
| 20260503230503 | 56 | 266 | 1.0 | 7.0 | 0.00 | 0.00 | 0.00 | 34 | 1016.4 |
| 20260503230000 | 56 | 353 | 4.0 | 6.0 | 0.00 | 0.00 | 0.00 | 32 | 1016.5 |
| 20260503225456 | 56 | 70 | 2.0 | 4.0 | 0.00 | 0.00 | 0.00 | 32 | 1016.3 |
| 20260503224952 | 56 | 239 | 2.0 | 3.0 | 0.00 | 0.00 | 0.00 | 36 | 1016.2 |
| 20260503224449 | 56 | 300 | 3.0 | 9.0 | 0.00 | 0.00 | 0.00 | 35 | 1016.5 |
| 20260503223947 | 56 | 266 | 1.0 | 3.0 | 0.00 | 0.00 | 0.00 | 35 | 1016.5 |
| 20260503223445 | 56 | 225 | 3.0 | 4.0 | 0.00 | 0.00 | 0.00 | 40 | 1016.3 |
| 20260503222940 | 57 | 193 | 4.0 | 6.0 | 0.00 | 0.00 | 0.00 | 34 | 1016.4 |
| 20260503222439 | 58 | 217 | 4.0 | 6.0 | 0.00 | 0.00 | 0.00 | 33 | 1016.3 |
| 20260503221937 | 59 | 311 | 3.0 | 4.0 | 0.00 | 0.00 | 0.00 | 32 | 1016.4 |
| 20260503221435 | 59 | 295 | 0.0 | 2.0 | 0.00 | 0.00 | 0.00 | 32 | 1016.4 |
| 20260503220931 | 60 | 212 | 2.0 | 3.0 | 0.00 | 0.00 | 0.00 | 33 | 1016.5 |
| 20260503220427 | 58 | 298 | 2.0 | 4.0 | 0.00 | 0.00 | 0.00 | 31 | 1016.5 |
| 20260503215925 | 59 | 339 | 5.0 | 7.0 | 0.00 | 0.00 | 0.00 | 30 | 1016.6 |
| 20260503215422 | 58 | 316 | 3.0 | 4.0 | 0.00 | 0.00 | 0.00 | 30 | 1016.5 |
| 20260503214919 | 59 | 206 | 4.0 | 7.0 | 0.00 | 0.00 | 0.00 | 29 | 1016.7 |
| 20260503214416 | 59 | 323 | 3.0 | 3.0 | 0.00 | 0.00 | 0.00 | 30 | 1016.6 |
| 20260503213914 | 59 | 253 | 2.0 | 6.0 | 0.00 | 0.00 | 0.00 | 31 | 1016.5 |
| 20260503213412 | 59 | 313 | 2.0 | 4.0 | 0.00 | 0.00 | 0.00 | 30 | 1016.5 |
| 20260503212908 | 59 | 273 | 3.0 | 8.0 | 0.00 | 0.00 | 0.00 | 31 | 1016.5 |
| 20260503212406 | 59 | 258 | 0.0 | 6.0 | 0.00 | 0.00 | 0.00 | 30 | 1016.5 |
| 20260503211903 | 60 | 212 | 3.0 | 6.0 | 0.00 | 0.00 | 0.00 | 32 | 1016.7 |
| 20260503211359 | 61 | 314 | 3.0 | 4.0 | 0.00 | 0.00 | 0.00 | 29 | 1016.6 |
| 20260503210854 | 61 | 296 | 2.0 | 3.0 | 0.00 | 0.00 | 0.00 | 30 | 1016.8 |
| 20260503210352 | 62 | 308 | 4.0 | 8.0 | 0.00 | 0.00 | 0.00 | 29 | 1016.7 |
| 20260503205847 | 61 | 292 | 0.0 | 3.0 | 0.00 | 0.00 | 0.00 | 30 | 1016.6 |
| 20260503205344 | 62 | 318 | 1.0 | 2.0 | 0.00 | 0.00 | 0.00 | 28 | 1016.7 |
| 20260503204840 | 62 | 325 | 1.0 | 3.0 | 0.00 | 0.00 | 0.00 | 29 | 1016.6 |
| 20260503204338 | 61 | 309 | 1.0 | 4.0 | 0.00 | 0.00 | 0.00 | 29 | 1016.7 |
| 20260503203835 | 61 | 324 | 1.0 | 2.0 | 0.00 | 0.00 | 0.00 | 28 | 1016.8 |
| 20260503203332 | 62 | 358 | 4.0 | 7.0 | 0.00 | 0.00 | 0.00 | 29 | 1017.0 |
| 20260503202829 | 60 | 289 | 2.0 | 4.0 | 0.00 | 0.00 | 0.00 | 31 | 1016.9 |
| 20260503202327 | 61 | 318 | 1.0 | 6.0 | 0.00 | 0.00 | 0.00 | 30 | 1017.0 |